Location: Fredericton
(45.9636°N, 66.6431°W)
Time: 22:05:57
(UTC-03:00)

Transit 2A Rocket - All Passes

Search period start: 26 May 2022 00:00
Search period end: 05 June 2022 00:00
Orbit: 592 x 909 km, 66.7° (Epoch: 26 May)

Date Brightness Start Highest point End Pass type
(mag) Time Alt. Az. Time Alt. Az. Time Alt. Az.
26 May - 00:55:52 10° WNW 00:58:28 16° WSW 01:01:02 10° SW visible
26 May - 13:48:37 10° S 13:53:17 28° ESE 13:57:39 10° NE daylight
26 May - 15:30:25 10° SW 15:35:41 49° NW 15:40:31 10° NNE daylight
26 May - 17:17:16 10° NW 17:19:22 12° NNW 17:21:24 10° N daylight
26 May - 22:29:26 10° NNW 22:33:34 35° NE 22:37:31 10° ESE visible
27 May - 00:12:12 10° NW 00:15:57 28° WSW 00:19:37 10° S visible
27 May - 13:07:17 10° SSE 13:10:43 17° ESE 13:14:00 10° ENE daylight
27 May - 14:47:18 10° SW 14:52:48 78° WNW 14:57:49 10° NNE daylight
27 May - 16:32:40 10° WNW 16:36:05 17° NW 16:39:19 10° N daylight
27 May - 21:46:56 10° NNW 21:50:30 22° NE 21:53:57 10° E visible
27 May - 23:29:02 10° NW 23:33:20 52° WSW 23:37:29 10° SSE visible
28 May - 14:04:33 10° SSW 14:10:00 65° ESE 14:15:00 10° NE daylight
28 May - 15:48:36 10° W 15:52:55 25° NW 15:56:58 10° NNE daylight
28 May - 21:04:38 10° N 21:07:19 15° NE 21:09:56 10° ENE daylight
28 May - 22:46:08 10° NNW 22:50:35 85° NE 22:54:52 10° SSE visible
29 May - 00:31:36 10° W 00:32:19 10° WSW 00:33:02 10° WSW visible
29 May - 13:22:13 10° S 13:27:18 39° ESE 13:31:59 10° NE daylight
29 May - 15:04:56 10° WSW 15:09:53 37° NW 15:14:28 10° NNE daylight
29 May - 20:22:53 10° NNE 20:24:00 11° NNE 20:25:07 10° NE daylight
29 May - 22:03:25 10° NNW 22:07:44 48° NE 22:11:53 10° SE visible
29 May - 23:46:43 10° WNW 23:49:51 20° WSW 23:52:57 10° SSW visible
30 May - 12:40:25 10° SSE 12:44:40 23° ESE 12:48:40 10° ENE daylight
30 May - 14:21:36 10° SW 14:26:56 58° NW 14:31:50 10° NNE daylight
30 May - 16:07:51 10° WNW 16:10:27 14° NNW 16:12:58 10° N daylight
30 May - 21:20:50 10° NNW 21:24:46 29° NE 21:28:32 10° ESE daylight
30 May - 23:03:18 10° NW 23:07:18 35° WSW 23:11:12 10° S visible
31 May - 11:59:32 10° SE 12:02:08 14° ESE 12:04:39 10° ENE daylight
31 May - 13:38:37 10° SSW 13:44:06 88° ESE 13:49:06 10° NNE daylight
31 May - 15:23:29 10° W 15:27:13 19° NW 15:30:46 10° N daylight
31 May - 20:38:24 10° N 20:41:38 19° NE 20:44:47 10° E daylight
31 May - 22:20:16 10° NW 22:24:38 66° WSW 22:28:52 10° SSE visible
01 Jun - 12:56:01 10° SSW 13:01:20 53° ESE 13:06:12 10° NE daylight
01 Jun - 14:39:34 10° WSW 14:44:07 28° NW 14:48:20 10° NNE daylight
01 Jun - 19:56:14 10° N 19:58:24 13° NNE 20:00:33 10° ENE daylight
01 Jun - 21:37:26 10° NNW 21:41:51 68° NE 21:46:07 10° SE visible
01 Jun - 23:21:38 10° WNW 23:23:43 13° WSW 23:25:49 10° SW visible
02 Jun - 12:13:52 10° S 12:18:39 32° ESE 12:23:05 10° NE daylight
02 Jun - 13:56:01 10° WSW 14:01:07 43° NW 14:05:47 10° NNE daylight
02 Jun - 15:43:26 10° NW 15:44:52 11° NNW 15:46:16 10° NNW daylight
02 Jun - 20:54:46 10° NNW 20:58:57 39° NE 21:02:58 10° ESE daylight
02 Jun - 22:37:42 10° WNW 22:41:14 24° WSW 22:44:42 10° SSW visible
03 Jun - 11:32:20 10° SSE 11:36:03 19° ESE 11:39:34 10° ENE daylight
03 Jun - 13:12:49 10° SW 13:18:12 69° NW 13:23:07 10° NNE daylight
03 Jun - 14:58:32 10° WNW 15:01:34 16° NW 15:04:27 10° N daylight
03 Jun - 20:12:14 10° NNW 20:15:54 25° NE 20:19:28 10° E daylight
03 Jun - 21:54:28 10° NW 21:58:37 45° WSW 22:02:42 10° S visible
04 Jun - 10:52:29 10° ESE 10:53:33 11° ESE 10:54:36 10° E daylight
04 Jun - 12:29:59 10° SSW 12:35:23 73° ESE 12:40:20 10° NE daylight
04 Jun - 14:14:21 10° W 14:18:22 22° NW 14:22:10 10° N daylight
04 Jun - 19:29:52 10° N 19:32:45 17° NE 19:35:33 10° ENE daylight
04 Jun - 21:11:30 10° NW 21:15:54 83° WSW 21:20:11 10° SSE daylight
